Regional Weather Roundup
Issued by NWS

Home | Current Version | Previous Version | Text Only | Print | Product List | Glossary On
Versions: 1 2 3 4 5 6 7 8 9 10 11 12 13 14 15 16 17 18 19 20 21 22 23 24 25 26 27 28 29 30 31 32 33 34 35 36 37 38 39 40 41 42 43 44 45 46 47 48 49 50
000
ASUS44 KJAN 300510
RWRMS

MISSISSIPPI HOURLY WEATHER ROUNDUP
NATIONAL WEATHER SERVICE JACKSON MS
1200 AM CDT SAT MAY 30 2015

NOTE: "FAIR: INDICATES FEW OR NO CLOUDS BELOW 12,000 FEET WITH NO
SIGNIFICANT WEATHER AND/OR OBSTRUCTIONS TO VISIBILITY.

MSZ001>002-007>008-010>013-018>021-025>028-034>036-300600-
NORTHWEST MISSISSIPPI

CITY           SKY/WX    TMP DP  RH WIND       PRES   REMARKS
CLARKSDALE       N/A     75  73  94 CALM      29.99F
CLEVELAND      FAIR      76  71  86 S20G29    30.00S
GREENWOOD      MOCLDY    75  68  78 S12       30.04S
GREENVILLE     MOCLDY    73  66  78 S15       29.99F
OLIVE BRANCH   CLEAR     72  72 100 S13       30.02R
OXFORD           N/A     72  64  78 S9        30.06S
TUNICA         PTCLDY    73  68  83 S15       30.00S HAZE
$$

MSZ003>006-009-014>017-022>024-029>033-037>039-300600-
NORTHEAST MISSISSIPPI

CITY           SKY/WX    TMP DP  RH WIND       PRES   REMARKS
COLUMBUS AFB   CLEAR     71  69  92 S5        30.07R
CORINTH        FAIR      72  68  88 SE6       30.04F
GOLDN TRIANGLE PTCLDY    72  66  83 S6        30.07S
STARKVILLE     FAIR      70  66  88 S3        30.08R
TUPELO         CLEAR     71  66  84 S5        30.06R
$$

MSZ040-058-300600-
CENTRAL MISSISSIPPI

CITY           SKY/WX    TMP DP  RH WIND       PRES   REMARKS
JACKSON INTL   PTCLDY    73  69  87 S6        30.07S
JACKSON HAWKNS PTCLDY    73  68  84 S6        30.08S
MERIDIAN KEY   CLEAR     68  67  96 S5        30.09S
MERIDIAN NAS   CLEAR     71  67  87 CALM      30.09S
RAYMOND        FAIR      75  70  83 CALM      30.06F
VICKSBURG      TSTM      69  66  90 CALM      30.04F FOG
$$

MSZ059>079-300600-
SOUTH MISSISSIPPI

CITY           SKY/WX    TMP DP  RH WIND       PRES   REMARKS
BROOKHAVEN     FAIR      70  70 100 CALM      30.10R FOG
HATTIESBURG    PTCLDY    70  69  97 CALM      30.09S
MCCOMB         PTCLDY    72  70  93 SE3       30.07F
NATCHEZ        MOCLDY    72  70  94 S5        30.06S
PINE BELT      PTCLDY    70  66  88 SE3       30.09F
$$

MSZ080>082-300600-
COASTAL MISSISSIPPI

CITY           SKY/WX    TMP DP  RH WIND       PRES   REMARKS
BILOXI         PTCLDY    80  71  76 S8        30.06S
PASCAGOULA     CLEAR     70  69  97 CALM      30.07F FOG
GULFPORT       MOCLDY    80  71  74 SE8       30.06S
$$



USA.gov is the U.S. government's official web portal to all federal, state and local government web resources and services.